User: anonymous   Login
Location: Home
(40.5300°N, 105.0300°W)
Time: 12:43:07
(UTC-06:00)
Language:

STARLINK-2742 - Orbit

View from above orbital plane
View from above orbital plane
View from above satellite
View from above satellite

Ground track
Ground track

The orbit data is extracted from the following two-line orbital elements,

1 48688C 21044BC  21263.34914281  .00037834  00000-0  26915-3 0  2636
2 48688  53.0460 205.3710 0004057   5.7023 220.7352 15.73135452    13
Epoch (UTC): 20 September 2021 08:22:45
Eccentricity: 0.0004057
inclination: 53.0460°
perigee height: 347 km
apogee height: 352 km
right ascension of ascending node: 205.3710°
argument of perigee: 5.7023°
revolutions per day: 15.73135452
mean anomaly at epoch: 220.7352°
orbit number at epoch: 1

The dashed part of the orbit path shows where the satellite is in the earth's shadow,  

DLR